User: anonymous   Login
Location: Unspecified
(0.0000°N, 0.0000°E)
Time: 08:57:18
(UTC+00:00)
Language:

N. Korean satellite - Orbit

View from above orbital plane
View from above orbital plane
View from above satellite
View from above satellite

Ground track
Ground track

The orbit data is extracted from the following two-line orbital elements,

1 39026U 12072A   17204.74290627 +.00001664 +00000-0 +66767-4 0  9996
2 39026 097.2224 221.3354 0041813 049.4019 311.0845 15.25558847255501
Epoch (UTC): 23 July 2017 17:49:47
Eccentricity: 0.0041813
inclination: 97.2224°
perigee height: 460 km
apogee height: 518 km
right ascension of ascending node: 221.3354°
argument of perigee: 49.4019°
revolutions per day: 15.25558847
mean anomaly at epoch: 311.0845°
orbit number at epoch: 25550

The dashed part of the orbit path shows where the satellite is in the earth's shadow,  

DLR